World > North America > United States > California > Shingletown  

Shingletown, CA Hourly Weather Forecast

Feedback E-mail the Weather

Quick Clicks

Weather World

24 Hour Forecast

Current Conditions - Clear. Temperature is 53°F12°C, dew point 45°F7°C, humidity 73%. Wind direction is N at 0 mph0 km/h with visibility of 10 mi16 km. Barometric pressure is 29.92 in1013 mb.
Today - Mostly sunny. Highs 52 to 67 higher elevations...60 to 74 lower elevations. Prevailing west winds up to 10 mph... Full Forecast
Tonight - Clear in the evening then becoming partly cloudy. Lows 35 to 50 higher elevations...40 to 55 lower elevations. Prevailing west win.. Full Forecast

Shingletown Hourly Weather

24 Hour Weather Scroll
Fri, Apr 19
7:00 am
Fri, Apr 19
8:00 am
Fri, Apr 19
9:00 am
Fri, Apr 19
10:00 am
Fri, Apr 19
11:00 am
Fri, Apr 19
Noon
Fri, Apr 19
1:00 pm
Fri, Apr 19
2:00 pm
Fri, Apr 19
3:00 pm
Fri, Apr 19
4:00 pm
Fri, Apr 19
5:00 pm
Fri, Apr 19
6:00 pm
Fri, Apr 19
7:00 pm
Fri, Apr 19
8:00 pm
Fri, Apr 19
9:00 pm
Fri, Apr 19
10:00 pm
Fri, Apr 19
11:00 pm
Sat, Apr 20
Midnight
Sat, Apr 20
1:00 am
Sat, Apr 20
2:00 am
Sat, Apr 20
3:00 am
Sat, Apr 20
4:00 am
Sat, Apr 20
5:00 am
Sat, Apr 20
6:00 am
SunnySunnySunnySunnySunnySunnyPartly Cloudy Partly Cloudy SunnySunnySunnySunnySunnyClear Clear Clear Clear Clear Clear Clear Clear Partly Cloudy Partly Cloudy Partly Cloudy
Sunny Sunny Sunny Sunny Sunny Sunny Partly Cloudy Partly Cloudy Sunny Sunny Sunny Sunny Sunny Clear Clear Clear Clear Clear Clear Clear Clear Partly Cloudy Partly Cloudy Partly Cloudy
53°F12°C 58°F14°C 61°F16°C 64°F18°C 66°F19°C 68°F20°C 69°F20°C 70°F21°C 70°F21°C 70°F21°C 69°F21°C 66°F19°C 60°F16°C 57°F14°C 55°F13°C 53°F12°C 53°F11°C 52°F11°C 52°F11°C 52°F11°C 52°F11°C 51°F11°C 51°F11°C 51°F11°C
37°F
3°C
44°F
6°C
45°F
7°C
47°F
8°C
48°F
9°C
49°F
9°C
49°F
9°C
48°F
9°C
46°F
8°C
45°F
7°C
46°F
8°C
49°F
10°C
52°F
11°C
49°F
9°C
47°F
8°C
45°F
7°C
43°F
6°C
42°F
6°C
42°F
5°C
41°F
5°C
42°F
5°C
42°F
6°C
43°F
6°C
43°F
6°C
29.91 in
1013 mb
29.94 in
1014 mb
29.91 in
1013 mb
29.91 in
1013 mb
29.91 in
1013 mb
29.91 in
1013 mb
29.88 in
1012 mb
29.88 in
1012 mb
29.88 in
1012 mb
29.85 in
1011 mb
29.85 in
1011 mb
29.85 in
1011 mb
29.88 in
1012 mb
29.88 in
1012 mb
29.94 in
1014 mb
29.94 in
1014 mb
29.94 in
1014 mb
29.94 in
1014 mb
29.94 in
1014 mb
29.94 in
1014 mb
29.94 in
1014 mb
29.97 in
1015 mb
29.97 in
1015 mb
29.97 in
1015 mb
74%59%53%53%52%50%48%46%42%40%42%51%71%80%79%74%72%69%67%68%69%70%73%76%
NEWSWWSWWSWWSWWSWWSWWSWWSWWSWWSWWSWEEEEEEEEEEE
2 mph
4 km/h
2 mph
4 km/h
2 mph
4 km/h
5 mph
8 km/h
6 mph
9 km/h
7 mph
11 km/h
7 mph
12 km/h
7 mph
11 km/h
6 mph
10 km/h
5 mph
9 km/h
5 mph
8 km/h
5 mph
8 km/h
3 mph
4 km/h
4 mph
7 km/h
6 mph
10 km/h
6 mph
10 km/h
6 mph
10 km/h
6 mph
10 km/h
6 mph
9 km/h
5 mph
8 km/h
5 mph
8 km/h
4 mph
7 km/h
4 mph
7 km/h
5 mph
8 km/h
0%0%0%0%0%0%0%0%0%0%0%0%0%0%0%0%0%0%0%0%0%0%0%0%
10 mi
16 km
6 mi
10 km
6 mi
10 km
6 mi
10 km
6 mi
10 km
6 mi
10 km
6 mi
10 km
6 mi
10 km
6 mi
10 km
6 mi
10 km
6 mi
10 km
6 mi
10 km
6 mi
10 km
6 mi
10 km
6 mi
10 km
6 mi
10 km
6 mi
10 km
6 mi
10 km
6 mi
10 km
6 mi
10 km
6 mi
10 km
6 mi
10 km
6 mi
10 km
6 mi
10 km

Day/Time
Weather
Condition
Temperature
Dew Point
Pressure
Humidity
Wind Direction
Wind Speed
Prob Precip %
Visibility
POP = Probability of Precipitation. ** Indicates missing data/values from KRDD model statistics.

Trending Headlines

Trending Entertainment Headlines

Shingletown Radar Loop

Use the map search tool if you want to place a location marker on the radar map...

48 Hour API Forecast

Prob Precip % = Probability of Precipitation.

Shingletown 36 Hour Forecast

POP = Probability of Precipitation. ** Indicates missing data/values from model statistics.

E-mail the Shingletown Weather Forecast

Voice your opinion or tell us about page issues...

Shingletown CA Weather - 10:54 am

What are people saying?

Contact Us